TIME,DELAY(SENSOR),PRES,T(CTD),SAL,OXYGEN,RAWTEMP,T(OPTODE),TCPHASE,TURBIDITY,TURBIDITY_GAIN,FLUOR,BETA,CDOM,ED411.5,ED443.8,ED489.6,PAR,COMP,TILT,TILTY(TILT),CHECK
1340591031,6469,147.5099945068359400,6.1840000152587890,34.8204002380371100,343.4616088867187500,615.4274902343750000,6.1674838066101070,32.3767013549804700,16,3,50,114,62,2147633585,2147396603,2147276964,2148319291,2178,0,-4,16211
1340591094,6468,144.7799987792968800,6.1847000122070310,34.8157005310058600,339.1236877441406000,615.4243774414062000,6.1675820350646970,32.5234718322753900,16,3,48,108,64,2147641097,2147394623,2147280081,2148319780,2238,0,-4,28405
1340591155,6468,142.3000030517578000,6.1820998191833500,34.8124008178710940,334.0486145019531000,615.4891967773438000,6.1655011177062990,32.6993598937988300,16,3,50,113,63,2147642038,2147391446,2147276050,2148320867,2128,0,-4,37483
1340591218,6468,139.8099975585937500,6.1795997619628910,34.8092002868652340,331.8111877441406000,615.5496826171875000,6.1635570526123050,32.7783889770507800,16,3,50,109,64,2147639099,2147395505,2147277329,2148320607,1853,2,-4,45133
1340591279,6466,137.4600067138672000,6.1894998550415040,34.8086013793945300,332.0284118652344000,615.3280029296875000,6.1706809997558590,32.7669296264648440,16,3,50,111,64,2147637046,2147393778,2147277974,2148320630,1858,0,-4,38861
1340591366,6469,133.5299987792968800,6.2477998733520510,34.8138999938964840,338.6057128906250000,613.5908813476562000,6.2265000343322750,32.5093803405761700,16,3,50,118,62,2147637334,2147396145,2147275935,2148318244,1730,0,-4,41017
1340591427,6467,129.8500061035156200,6.2565999031066895,34.8125000000000000,346.1217956542969000,613.2664794921875000,6.2369208335876465,32.2502708435058600,16,3,50,121,62,2147638920,2147395373,2147278774,2148320022,1325,0,-4,58291
1340591490,6467,126.0699996948242200,6.2688999176025390,34.8077011108398440,349.7443847656250000,612.8613891601562000,6.2499351501464840,32.1232910156250000,16,3,50,121,62,2147636603,2147395268,2147280936,2148318555,909,0,-4,7024
1340591551,6468,122.5199966430664000,6.2715001106262210,34.8065986633300800,351.0798034667969000,612.7589111328125000,6.2532291412353520,32.0778694152832000,16,3,50,118,62,2147635620,2147393371,2147277864,2148318665,243,0,-4,4629
1340591614,6467,118.9199981689453100,6.2793998718261720,34.8049011230468750,351.6380004882812500,612.5169067382812000,6.2609977722167970,32.0555305480957000,16,3,50,117,62,2147637732,2147394481,2147280301,2148320077,3115,0,-4,4004
1340591675,6467,115.5999984741211000,6.3069000244140625,34.7985992431640600,352.0213012695312500,611.7139892578125000,6.2867789268493650,32.0290412902832000,16,3,51,116,62,2147633951,2147392716,2147278390,2148317978,2488,0,-4,15897
1340591738,6466,112.3799972534179700,6.3105001449584960,34.7994003295898440,352.1232910156250000,611.5479125976562000,6.2921118736267090,32.0228805541992200,16,3,50,119,62,2147638970,2147393164,2147277384,2148320713,2283,0,-4,35816
1340591799,6468,109.3499984741211000,6.3140997886657715,34.7980995178222660,352.3251037597656000,611.4000854492188000,6.2968559265136720,32.0138397216796900,16,3,51,116,62,2147636644,2147394879,2147279117,2148318340,2037,1,-4,32990
1340591862,6468,106.3700027465820300,6.3211998939514160,34.7928009033203100,351.5151062011719000,611.1762084960938000,6.3040452003479000,32.0361213684082000,16,3,51,115,62,2147633480,2147392515,2147279469,2148322252,1805,2,-4,46156
1340591923,6467,103.5899963378906200,6.3383002281188965,34.7900009155273440,351.4190063476562500,610.5861206054688000,6.3229889869689940,32.0293083190918000,16,3,52,118,62,2147638363,2147395322,2147278175,2148317796,1513,2,-4,19835
1340591986,6469,100.8000030517578100,6.3758001327514650,34.7830009460449200,351.1859130859375000,609.6331787109375000,6.3535671234130860,32.0206298828125000,16,3,54,120,62,2147636173,2147393691,2147276452,2148320941,1189,2,-4,32935
1340592047,6467,98.2500000000000000,6.3860998153686520,34.7821998596191400,351.6017150878906000,609.1801757812500000,6.3681011199951170,31.9993991851806640,16,3,54,118,62,2147634802,2147394989,2147278111,2148320854,1166,1,-4,31514
1340592111,6468,95.6999969482421900,6.4003000259399410,34.7817001342773440,352.1094055175781000,608.7589111328125000,6.3816170692443850,31.9756793975830080,16,3,56,125,62,2147637119,2147392758,2147277353,2148319350,1051,0,-4,60811
1340592172,6468,93.2600021362304700,6.4089999198913570,34.7803001403808600,353.1104125976562500,608.4589233398438000,6.3912391662597660,31.9381408691406250,16,3,57,125,62,2147638097,2147393805,2147276639,2148319871,670,0,-4,27114
1340592262,6469,88.8799972534179700,6.4397997856140140,34.7747001647949200,352.1612854003906000,607.5471191406250000,6.4204788208007810,31.9531402587890620,16,3,60,123,62,2147635410,2147396882,2147278198,2148318431,3252,2,-4,52080
1340592323,6466,85.0999984741211000,6.4702000617980960,34.7736015319824200,352.3995971679687500,606.5664062500000000,6.4519228935241700,31.9288902282714840,16,3,64,130,62,2147636566,2147393997,2147277562,2148319931,2912,0,-4,61325
1340592386,6468,81.1200027465820300,6.4918999671936035,34.7747993469238300,355.2806091308594000,605.9182739257812000,6.4726982116699220,31.8246002197265620,16,3,68,134,62,2147636475,2147392963,2147275661,2148320900,2471,1,-4,45979
1340592447,6468,77.2500000000000000,6.5142998695373535,34.7709007263183600,356.6370849609375000,605.1359863281250000,6.4977660179138180,31.7675590515136720,32,3,72,138,62,2147638541,2147394907,2147276392,2148317247,1868,0,-4,909
1340592533,6467,72.3499984741211000,6.5634999275207520,34.7662010192871100,356.8738098144531000,603.7687988281250000,6.5415649414062500,31.7368106842041000,14,3,80,142,62,2147640173,2147390902,2147275789,2148320378,1788,0,-4,55860
1340592594,6466,69.7600021362304700,6.5710000991821290,34.7667007446289060,356.6940917968750000,603.4290771484375000,6.5524458885192870,31.7369499206542970,16,3,82,142,63,2147639798,2147392579,2147276822,2148321810,1553,2,-4,4250
1340592657,6468,67.1200027465820300,6.5760998725891110,34.7658996582031250,356.7127990722656000,603.2545776367188000,6.5580329895019530,31.7333393096923830,16,3,84,138,62,2147636717,2147393302,2147275853,2148320822,1292,0,-4,60541
1340592718,6469,64.6699981689453100,6.5950999259948730,34.7648010253906250,356.4193115234375000,602.7161865234375000,6.5752739906311035,31.7335700988769530,14,3,86,138,62,2147638683,2147393590,2147277444,2148317554,906,0,-4,55545
1340592782,6467,62.2900009155273440,6.6265001296997070,34.7612991333007800,355.4920043945312500,601.7194824218750000,6.6071820259094240,31.7466392517089840,19,3,89,140,62,2147639222,2147392438,2147276337,2148319026,740,0,-4,5292
1340592843,6468,60.2799987792968750,6.6904001235961910,34.7574996948242200,354.6940917968750000,599.8085937500000000,6.6683330535888670,31.7403202056884770,16,3,98,143,63,2147637677,2147392191,2147276136,2148321681,643,1,-4,49654
1340592929,6469,57.0299987792968750,6.8199000358581540,34.7561988830566400,353.3947143554687500,596.1005249023438000,6.7868938446044920,31.7197303771972660,15,3,110,152,62,2147636516,2147393380,2147277224,2148317389,3180,2,-4,11842
1340592990,6467,53.8400001525878900,6.9815998077392580,34.7605018615722660,348.6481933593750000,591.0485229492188000,6.9482169151306150,31.7897796630859380,15,3,94,147,64,2147635528,2147394051,2147276009,2148317160,2763,2,-4,37197
1340593053,6469,50.3800010681152340,7.2224001884460450,34.7546997070312500,345.8371887207031000,583.9644775390625000,7.1740250587463380,31.7646293640136720,20,3,126,169,64,2147637842,2147393805,2147274989,2148317960,2389,1,-4,52855
1340593114,6469,46.9000015258789060,7.4640002250671390,34.7540016174316400,348.9254150390625000,576.0471801757812000,7.4258542060852050,31.5324897766113280,22,3,161,185,64,2147634816,2147395213,2147273229,2148319524,2235,0,-4,41354
1340593177,6468,43.2900009155273440,7.7603001594543460,34.7564010620117200,351.7744140625000000,566.7910766601562000,7.7195591926574710,31.2892799377441400,25,3,156,197,62,2147638486,2147395793,2147273311,2148317293,2447,0,-4,8188
1340593238,6470,39.5800018310546900,7.8668999671936035,34.7574005126953100,352.6466064453125000,562.3906860351562000,7.8589229583740230,31.1903095245361330,24,3,159,199,62,2147640433,2147392978,2147273256,2148317133,2117,0,-4,50810
1340593324,6470,34.8300018310546900,8.6159000396728520,34.7369995117187500,350.2148132324219000,546.5748901367188000,8.3584747314453120,31.0161094665527340,29,3,175,188,62,2147637864,2147391131,2147274326,2148317951,2509,0,-4,10296
1340593397,6470,33.8499984741210940,8.6347999572753900,34.7342987060546900,350.3388061523437500,543.3731079101562000,8.4593505859375000,30.9617195129394530,36,3,170,218,62,2147639126,2147393988,2147272260,2148314070,2347,0,-4,59454
1340593608,6470,30.8500003814697270,9.3697004318237300,34.7299003601074200,346.3728027343750000,515.7238159179688000,9.3271226882934570,30.6601905822753900,67,3,739,541,64,2147638523,2147390202,2147271044,2148318605,1581,2,-4,8841
1340593669,6470,29.1700000762939450,9.6630001068115230,34.7164001464843750,346.4397888183594000,507.4486999511719000,9.5857124328613280,30.5317802429199220,85,3,1451,630,64,2147635592,2147389457,2147270381,2148314217,381,0,-4,6169
1340593759,6472,25.9300003051757800,10.0802001953125000,34.7158012390136700,353.2600097656250000,492.6733093261719000,10.0462198257446290,30.0924491882324220,85,3,1360,615,65,2147635053,2147387520,2147267844,2148314317,300,1,-4,9043
1340593820,6471,22.4799995422363280,10.3156995773315430,34.7173995971679700,359.7831115722656000,485.5365905761719000,10.2681102752685550,29.7841606140136720,235,3,1155,577,66,2147639195,2147389247,2147267090,2148309151,3048,2,-4,32902
1340593883,6470,18.9200000762939450,11.3955001831054690,34.7252006530761700,358.1755065917969000,449.9513854980469000,11.3696699142456050,29.3185691833496100,90,3,581,569,64,2147636900,2147387350,2147265910,2148313192,3077,0,-4,33810
1340593944,6470,16.1900005340576170,11.8853998184204100,34.7280998229980500,358.4298095703125000,435.9079895019531000,11.8023395538330080,29.1123790740966800,89,3,649,593,64,2147639117,2147388749,2147261636,2148310550,2584,2,-4,2710
1340594007,6469,13.7600002288818360,12.1808996200561520,34.7134017944335940,358.9179077148437500,425.2580871582031000,12.1297502517700200,28.9489002227783200,95,3,659,595,64,2147637444,2147389023,2147262198,2148307889,2580,0,-5,50569
1340594068,6469,11.8199996948242190,12.3261995315551760,34.7174987792968750,359.8739013671875000,419.4776000976562500,12.3072204589843750,28.8399600982666000,98,3,749,578,62,2147638783,2147389037,2147258701,2148308310,3066,2,-4,52822
1340594148,6472,9.5000000000000000,12.5601997375488280,34.7214012145996100,358.3511047363281000,411.6310119628906000,12.5478496551513670,28.7777900695800780,104,3,723,630,62,2147636150,2147384479,2147257635,2148307373,2233,-2,-4,34279
1340594220,6470,6.8299999237060550,12.6651000976562500,34.7214012145996100,356.9927978515625000,406.5806884765625000,12.7025699615478520,28.7497100830078120,110,3,698,549,62,2147634632,2147384995,2147256927,2148308040,2001,-4,0,63193
1340594291,6471,3.7400000095367430,12.9945001602172850,34.7246017456054700,351.6608886718750000,397.2670898437500000,12.9876098632812500,28.7855091094970700,98,3,608,542,61,2147632776,2147384539,2147253083,2148305005,2672,-4,-9,33334
1340594349,6471,1.9400000572204590,0.0000000000000000,0.0000000000000000,351.1585083007812500,397.0307922363281000,12.9948396682739260,28.7978401184082030,108,3,626,513,61,2147638546,2147383894,2147256594,2148302641,2768,-7,4,7568
1340594372,6469,0.7900000214576721,0.0000000000000000,0.0000000000000000,351.0241088867187500,396.9876098632812500,12.9961595535278320,28.8013305664062500,99,3,610,553,60,2147639442,2147382089,2147254185,2148305960,1103,-14,-8,12228
